sat.trackr.live / text

‹ back to catalog

STARLINK-32547

NORAD 61919 · 2024-207H

PAYLOAD ACTIVE UNKNOWN

§ Identity

Operator
Country
US
Launch date
2024-11-11
Launch site
AFETR
Launch vehicle
Mass (kg)
RCS (m²)

Purposes: comms

External: N2YO · Heavens-Above · Gunter

§ Orbital elements

Epoch: 2026-09-21T16:44:55.218912Z

Period
94.27 min
Inclination
43.0034°
Eccentricity
0.0001530
Mean motion
15.27590418 rev/d
Perigee alt
482.0 km
Apogee alt
484.1 km
Semi-major
6,861.2 km
B*
4.4479e-4
RAAN
254.3946°
Arg perigee
277.8318°
Mean anomaly
82.2360°
Rev number
10,469

§ Raw data

STARLINK-325471 61919U 24207H   26264.69786133  .00012001  00000+0  44479-3 0  99982 61919  43.0034 254.3946 0001530 277.8318  82.2360 15.27590418104693

JSON: /api/v1/satellites/61919 · /tle

For live sub-satellite position, see the globe view (requires WebGL).

§ Visibility from observer

Set your observer location to see the next 7 days of passes ≥ 10°. The values pass through the URL so the page stays shareable.

No JS? Fill the form by hand. The geolocation button needs JavaScript.